Salt Flat, TX

11:43 PM CST on December 04, 2016 (GMT -0600)
Guadalupe Pass

Weather History for KGDP - September, 2012

Change the Weather History Date:

Sunday, September 30, 2012

  Actual Average Record
Temperature  
Mean Temperature 68 °F -  
Max Temperature 81 °F 75 °F 89 °F (1997)
Min Temperature 54 °F 55 °F 46 °F (1999)
Cooling Degree Days 2    
Growing Degree Days 18 (Base 50)    
Moisture  
Dew Point 48 °F    
Average Humidity 63    
Maximum Humidity 93    
Minimum Humidity 27    
Precipitation  
Precipitation 0.00 in - - ()
Sea Level Pressure  
Sea Level Pressure 30.01 in    
Wind  
Wind Speed 12 mph (WSW)    
Max Wind Speed 30 mph    
Max Gust Speed 32 mph    
Visibility 10 miles    
Events Rain    
Averages and records for this station are not official NWS values.
T = Trace of Precipitation, MM = Missing Value Source: NWS Daily Summary

Daily Weather History Graph

Daily Weather History Graph

Search for Another Location

Airport or City:

Trip Planner

Search our weather history database for the weather conditions in past years. The results will help you decide how hot, cold, wet, or windy it might be!

Date:

Astronomy

Sep. 30, 2012 Rise Set
Actual Time 6:52 AM MDT 6:44 PM MDT
Civil Twilight 6:28 AM MDT 7:09 PM MDT
Nautical Twilight 6:00 AM MDT 7:37 PM MDT
Astronomical Twilight 5:31 AM MDT 8:05 PM MDT
Moon 6:56 PM MDT (9/30) 7:20 AM MDT (9/30)
Length of Visible Light 12h 40m
Length of Day
11h 51m
Full, 100% of the Moon is Illuminated
Sep 30
Full
Oct 8
Last Quarter
Oct 15
New
Oct 21
First Quarter
Oct 29
Full

Hourly Weather History & Observations

Time (MDT) Temp. Dew Point Humidity Pressure Visibility Wind Dir Wind Speed Gust Speed Precip Events Conditions
12:51 AM 57.9 °F 51.1 °F 78% 30.07 in 10.0 mi WSW 3.5 mph - N/A   Clear
1:51 AM 55.9 °F 51.1 °F 84% 30.06 in 10.0 mi WSW 9.2 mph - N/A   Clear
2:51 AM 55.9 °F 51.1 °F 84% 30.04 in 10.0 mi WSW 11.5 mph - N/A   Clear
3:51 AM 55.0 °F 51.1 °F 86% 30.02 in 10.0 mi WSW 12.7 mph - N/A   Clear
4:51 AM 55.0 °F 52.0 °F 89% 30.02 in 10.0 mi WSW 12.7 mph - N/A   Clear
5:51 AM 54.0 °F 52.0 °F 93% 30.03 in 10.0 mi WSW 10.4 mph - N/A   Clear
6:51 AM 54.0 °F 51.1 °F 90% 30.03 in 10.0 mi SW 11.5 mph - N/A   Clear
7:51 AM 54.0 °F 52.0 °F 93% 30.06 in 8.0 mi SW 10.4 mph - N/A   Clear
8:51 AM 55.9 °F 53.1 °F 90% 30.07 in 9.0 mi SW 8.1 mph - N/A   Clear
9:51 AM 59.0 °F 54.0 °F 83% 30.06 in 9.0 mi SW 15.0 mph - N/A   Clear
10:51 AM 63.0 °F 54.0 °F 72% 30.05 in 9.0 mi WSW 15.0 mph - N/A   Clear
11:51 AM 70.0 °F 54.0 °F 57% 30.01 in 10.0 mi SW 18.4 mph - N/A   Clear
12:51 PM 73.0 °F 53.1 °F 49% 29.98 in 10.0 mi WSW 20.7 mph 27.6 mph N/A   Clear
1:51 PM 75.0 °F 52.0 °F 44% 29.95 in 10.0 mi WSW 18.4 mph 32.2 mph N/A   Clear
2:51 PM 78.1 °F 51.1 °F 39% 29.92 in 10.0 mi WSW 20.7 mph 25.3 mph N/A   Mostly Cloudy
3:51 PM 81.0 °F 45.0 °F 28% 29.90 in 10.0 mi West 21.9 mph - N/A   Mostly Cloudy
4:51 PM 71.1 °F 41.0 °F 34% 29.93 in 10.0 mi East 20.7 mph - N/A   Partly Cloudy
5:30 PM 68.0 °F 39.9 °F 36% 30.14 in 10.0 mi NNE 24.2 mph - N/A   Overcast
5:51 PM 71.1 °F 35.1 °F 27% 29.94 in 8.0 mi Calm Calm - 0.00 in Rain Light Rain
6:51 PM 66.0 °F 39.9 °F 38% 29.95 in 10.0 mi NE 13.8 mph - 0.00 in   Partly Cloudy
7:51 PM 64.9 °F 39.9 °F 40% 29.98 in 10.0 mi Variable 5.8 mph - N/A   Clear
8:51 PM 63.0 °F 46.9 °F 56% 29.99 in 10.0 mi WSW 8.1 mph - N/A   Clear
9:51 PM 64.9 °F 44.1 °F 47% 30.01 in 10.0 mi North 8.1 mph - N/A   Overcast
10:51 PM 57.0 °F 46.0 °F 67% 30.01 in 10.0 mi ENE 29.9 mph - N/A   Clear
11:51 PM 55.0 °F 46.0 °F 72% 29.98 in 10.0 mi ENE 23.0 mph - N/A   Clear